Weather in Uryum

Russia / Zabaykalsky Krai     53°10′05″N   118°06′41″E
temp.,
°C
wind,
m/s
gust,
m/s
humid.,
%
clouds,
%
prec.,
mm/h
press.,
hPa
HPBL,
m
21 april, wed
wed2100:00+3ne113899 0.0 100610
03:00+2n114113 0.0 100610
06:00+1nne11455 0.0 100610
09:00+7ese223283 0.0 1004290
12:00+14se232438 0.0 1003922
15:00+19ese1519100 0.0 9991457
18:00+14nnw4631100 0.0 1001699
21:00+6n3564100 0.0 1008271
22 april, thu
thu2200:00+4nnw3568100 0.0 1011423
03:00+1nnw2379100 0.0 101391
06:00−1nnw238267 0.0 101659
09:00+3n3452100 0.0 10191023
12:00+5n443471 0.0 10201453
15:00+7nne43275 0.0 10201854
18:00+6nne442971 0.0 10221997
21:00+2nne3650100 0.0 1028787
23 april, fri
fri2300:00−1ene2567100 0.1 1033541
03:00−3ne3659100 0.1 1036635
06:00−4nne2550100 0.0 1038401
09:00−1ne233294 0.0 10391188
12:00+3n24190 0.0 10372070
15:00+5nnw45170 0.0 10352259
18:00+5nnw35180 0.0 10351970
21:00−1nnw21310 0.0 103711
24 april, sat
sat2400:00−3wnw22363 0.0 103816
03:00−4wnw22420 0.0 103823
06:00−5wnw22470 0.0 103827
09:00+3w25270 0.0 1035647
12:00+10nw36170 0.0 10301735
15:00+12nnw571795 0.0 10282018
18:00+10nnw4620100 0.0 10261726
21:00+4nnw2235100 0.0 102817
25 april, sun
sun2500:00+2nnw114472 0.0 102810
03:000nnw1149100 0.0 102710
06:00−1nne1153100 0.0 102610
09:00+4se1138100 0.0 1023312
12:00+11ssw2323100 0.0 10191224
15:00+15sw3413100 0.0 10142191
18:00+13sw441779 0.0 10121810
21:00+8wsw2728100 0.0 1012135